Probability
0 0 0 0 0 0 0 0 0 0 0 0 0 0 0 0 0 0 0 0 0 0 0 0 0 0 0 0 0 0 0 0 0 0 0 0 0 0 0 0 0 0 0 0 0 0 0 0 0
0 0 0 0 0 0 0 0 0 0 0 0 0 0 0 0 0 0 0 0 0 0 0 0 0 0 0 0 0 0 0 0 0 0 0 0 0 0 0 0 0 0 0 0 0 0 0 0 0
0 0 0 0 0 0 0 0 0 0 0 0 0 0 0 0 0 0 0 0 0 0 0 0 0 0 0 0 0 0 0 0 0 0 0 0 0 0 0 0 0 0 0 0 0 0 0 0 0
0 0 0 0 0 0 0 0 0 0 0 0 0 0 0 0 0 0 0 0 0 0 0 0 0 0 0 0 0 0 0 0 0 0 0 0 0 0 0 0 0 0 0 0 0 0 0 0 0
0 0 0 0 0 0 0 0 0 0 0 0 0 0 0 0 0 0 0 0 0 0 0 0 0 0 0 0 0 0 0 0 0 0 0 0 0 0 0 0 0 0 0 0 0 0 0 0 0
0 0 0 0 0 0 0 0 0 0 0 0 0 0 0 0 0 0 0 0 0 0 0 0 0 0 0 0 0 0 0 0 0 0 0 0 0 0 0 0 0 0 0 0 0 0 0 0 0
0 0 0 0 0 0 0 0 0 0 0 0 0 0 0 0 0 0 0 0 0 0 0 0 0 0 0 0 0 0 0 0 0 0 0 0 0 0 0 0 0 0 0 0 0 0 0 0 0
0 0 0 0 0 0 0 0 0 0 0 0 0 0 0 0 0 0 0 0 0 0 0 0 0 0 0 0 0 0 0 0 0 0 0 0 0 0 0 0 0 0 0 0 0 0 0 0 0
0 0 0 0 0 0 0 0 0 0 0 0 0 0 0 0 0 0 0 0 0 0 0 0 0 0 0 0 0 0 0 0 0 0 0 0 0 0 0 0 0 0 0 0 0 0 0 0 0
0 0 0 0 0 0 0 0 0 0 0 0 0 0 0 0 0 0 0 0 0 0 0 0 0 0 0 0 0 0 0 0 0 0 0 0 0 0 0 0 0 0 0 0 0 0 0 0 0
0 0 0 0 0 0 0 0 0 0 0 0 0 0 0 0 0 0 0 0 0 0 0 0 0 0 0 0 0 0 0 0 0 0 0 0 0 0 0 0 0 0 0 0 0 0 0 0 0
0 0 0 0 0 0 0 0 0 0 0 0 0 0 0 0 0 0 0 0 0 0 0 0 0 0 0 0 0 0 0 0 0 0 0 0 0 0 0 0 0 0 0 0 0 0 0 0 0
0 0 0 0 0 0 0 0 0 0 0 0 0 0 0 0 0 0 0 0 0 0 0 0 0 0 0 0 0 0 0 0 0 0 0 0 0 0 0 0 0 0 0 0 0 0 0 0 0
0 0 0 0 0 0 0 0 0 0 0 0 0 0 0 0 0 0 0 0 0 0 0 0 0 0 0 0 0 0 0 0 0 0 0 0 0 0 0 0 0 0 0 0 0 0 0 0 0
0 0 0 0 0 0 0 0 0 0 0 0 0 0 0 0 0 0 0 0 0 0 0 0 0 0 0 0 0 0 0 0 0 0 0 0 0 0 0 0 0 0 0 0 0 0 0 0 0
0 0 0 0 0 0 0 0 0 0 0 0 0 0 0 0 0 0 0 0 0 0 0 0 0 0 0 0 0 0 0 0 0 0 0 0 0 0 0 0 0 0 0 0 0 0 0 0 0
0 0 0 0 0 0 0 0 0 0 0 0 0 0 0 0 0 0 0 0 0 0 0 0 0 0 0 0 0 0 0 0 0 0 0 0 0 0 0 0 0 0 0 0 0 0 0 0 0
0 0 0 0 0 0 0 0 0 0 0 0 0 0 0 0 0 0 0 0 0 0 0 0 0 0 0 0 0 0 0 0 0 0 0 0 0 0 0 0 0 0 0 0 0 0 0 0 0
0 0 0 0 0 0 0 0 0 0 0 0 0 0 0 0 0 0 0 0 0 0 0 0 0 0 0 0 0 0 0 0 0 0 0 0 0 0 0 0 0 0 0 0 0 0 0 0 0
0 0 0 0 0 0 0 0 0 0 0 0 0 0 0 0 0 0 0 0 0 0 0 0 0 0 0 0 0 0 0 0 0 0 0 0 0 0 0 0 0 0 0 0 0 0 0 0 0
0 0 0 0 0 0 0 0 0 0 0 0 0 0 0 0 0 0 0 0 0 0 0 0 0 0 0 0 0 0 0 0 0 0 0 0 0 0 0 0 0 0 0 0 0 0 0 0 0
0 0 0 0 0 0 0 0 0 0 0 0 0 0 0 0 0 0 0 0 0 0 0 0 0 0 0 0 0 0 0 0 0 0 0 0 0 0 0 0 0 0 0 0 0 0 0 0 0
0 0 0 0 0 0 0 0 0 0 0 0 0 0 0 0 0 0 0 0 0 0 0 0 0 0 0 0 0 0 0 0 0 0 0 0 0 0 0 0 0 0 0 0 0 0 0 0 0
0 0 0 0 0 0 0 0 0 0 0 0 0 0 0 0 0 0 0 0 0 0 0 0 0 0 0 0 0 0 0 0 0 0 0 0 0 0 0 0 0 0 0 0 0 0 0 0 0
0 0 0 0 0 0 0 0 0 0 0 0 0 0 0 0 0 0 0 0 0 0 0 0 0 0 0 0 0 0 0 0 0 0 0 0 0 0 0 0 0 0 0 0 0 0 0 0 0
0 0 0 0 0 0 0 0 0 0 0 0 0 0 0 0 0 0 0 0 0 0 0 0 0 0 0 0 0 0 0 0 0 0 0 0 0 0 0 0 0 0 0 0 0 0 0 2 3
0 0 0 0 0 0 0 0 0 0 0 0 0 0 0 0 0 0 0 0 0 0 0 0 0 0 0 0 0 0 0 0 0 0 0 0 0 0 0 0 0 0 0 0 0 0 1 3 6
0 0 0 0 0 0 0 0 0 0 0 0 0 0 0 0 0 0 0 0 0 0 0 0 0 0 0 0 0 0 0 0 0 0 0 0 0 0 0 0 0 0 0 0 0 0 0 2 4
0 0 0 0 0 0 0 0 0 0 0 0 0 0 0 0 0 0 0 0 0 0 0 0 0 0 0 0 0 0 0 0 0 0 0 0 0 0 0 0 0 0 0 0 0 0 0 0 1
0 0 0 0 0 0 0 0 0 0 0 0 0 0 0 0 0 0 0 0 0 0 0 0 0 0 0 0 0 0 0 0 0 0 0 0 0 0 0 0 0 0 0 0 0 0 0 0 0
Wind_Speed
13 13 7 2 3 5 10 10 8 1 4 6 5 4 3 6 4 4 5 4 10 12 12 12 16 15 14 13 11 10 8 6 5 5 5 6 5 5 6 6 6 7 7 8 8 6 6 8 9
9 11 5 3 4 6 9 12 7 1 6 4 1 2 1 7 7 8 5 4 9 12 11 12 15 14 14 13 12 10 8 5 4 4 4 5 5 5 6 6 6 5 6 7 7 6 6 7 6
11 9 4 3 5 8 8 6 0 9 6 1 1 2 5 5 6 7 7 7 7 11 10 14 17 15 14 13 12 10 8 6 5 5 4 5 4 5 5 5 5 5 5 5 5 5 4 4 5
6 4 4 5 10 11 8 6 6 5 4 1 2 5 5 5 4 8 9 7 7 8 10 14 17 15 14 13 12 11 8 6 5 5 5 4 4 5 4 3 3 3 3 4 4 3 2 3 2
4 4 5 7 12 13 10 6 4 1 3 6 3 2 6 4 9 10 7 7 7 7 13 12 15 15 13 13 12 10 9 8 7 5 4 3 4 3 3 2 2 3 3 2 1 1 1 1 1
4 4 5 7 11 13 14 3 4 3 4 5 2 1 6 7 7 8 7 6 6 8 13 11 13 12 12 12 11 10 8 8 8 6 4 2 2 3 3 1 3 4 3 3 3 3 3 3 2
4 5 8 11 11 10 11 2 2 4 6 5 2 1 7 8 8 8 7 6 6 7 11 11 9 8 9 9 11 10 7 7 8 7 5 3 3 3 3 2 4 5 3 3 4 5 5 5 5
3 5 8 9 11 12 6 3 2 5 4 4 2 2 7 9 9 8 7 6 6 6 7 11 11 10 8 6 10 10 8 7 8 7 5 6 5 6 6 6 7 6 5 5 5 6 7 7 6
3 4 8 9 8 8 6 4 1 2 4 2 2 5 7 14 11 8 6 5 5 6 6 6 9 9 10 10 11 10 8 8 10 8 9 8 5 7 8 8 9 8 7 7 6 6 6 5 6
4 4 10 11 9 9 10 6 6 2 6 4 5 8 9 10 9 9 8 8 7 7 7 5 6 7 6 7 9 6 7 7 7 6 8 6 6 6 7 11 11 10 8 8 8 8 7 5 4
6 8 10 13 7 8 8 9 8 6 7 7 8 13 12 10 9 9 9 8 8 8 7 7 6 7 6 4 6 5 5 6 8 8 9 8 7 4 5 5 5 5 6 5 7 6 4 5 5
9 12 10 13 3 3 7 9 9 8 9 3 6 8 12 11 11 10 9 8 9 9 9 8 8 7 7 6 4 4 4 4 5 7 8 7 4 3 4 4 5 5 4 5 5 4 7 7 6
12 12 14 13 5 5 7 9 10 10 8 3 4 6 11 10 9 9 9 9 9 10 10 10 8 7 7 6 5 5 5 5 5 5 6 6 4 4 4 3 3 4 4 5 5 5 6 6 7
8 7 12 10 6 6 6 10 7 8 7 4 5 6 8 10 10 9 10 10 9 9 9 9 10 8 7 6 6 5 5 5 5 5 6 7 5 5 4 4 4 4 4 4 5 6 6 5 5
8 9 11 9 9 7 3 8 12 14 4 4 5 7 9 9 9 10 10 10 9 7 8 10 11 12 10 8 8 6 5 5 5 5 7 8 7 6 6 5 5 5 5 6 5 6 5 5 5
5 8 10 11 10 5 2 9 10 5 3 5 6 6 7 9 9 9 9 9 9 8 9 10 10 12 12 9 7 5 6 6 6 6 6 9 9 9 7 6 6 6 6 5 5 6 5 5 5
8 8 11 9 8 6 6 8 10 3 2 5 6 6 5 3 4 6 7 8 9 10 9 9 9 10 11 10 7 6 6 7 6 6 7 9 11 11 9 8 7 7 6 6 6 6 5 6 6
6 10 10 9 6 4 6 9 9 5 6 6 4 4 5 7 8 8 8 6 3 5 8 10 10 11 10 9 7 5 6 6 6 7 9 10 10 11 10 8 9 8 6 7 7 7 6 5 5
10 6 9 2 7 1 6 8 1 5 5 5 7 10 10 9 10 11 11 11 10 9 6 4 7 8 8 5 6 6 6 5 5 7 9 10 11 11 11 9 8 8 8 9 8 7 8 7 5
6 6 6 1 4 0 6 4 4 3 4 7 10 9 7 7 7 8 9 10 10 10 10 8 5 4 6 6 6 4 5 5 7 7 9 10 10 9 9 10 8 8 8 9 10 9 7 6 7
6 6 4 2 1 5 4 3 5 5 8 9 8 6 6 7 8 8 9 9 9 9 9 8 8 6 2 4 3 2 3 3 4 6 5 6 8 8 8 9 8 8 9 9 10 9 10 8 7
6 1 4 5 5 4 7 4 7 7 7 8 6 6 6 7 7 7 8 8 8 8 7 7 7 7 6 3 2 5 4 5 6 5 5 7 9 11 11 10 10 10 10 11 11 12 11 11 10
3 2 1 3 5 5 4 3 7 9 8 7 6 6 6 6 7 7 7 7 7 7 8 8 8 8 7 6 5 3 4 5 4 5 6 7 8 11 12 11 10 11 11 12 13 12 13 12 13
0 3 4 4 3 4 3 1 5 9 11 10 7 7 6 6 6 6 6 6 6 7 7 8 9 9 9 8 7 6 6 6 7 7 6 6 5 5 7 9 10 10 11 13 14 14 13 13 13
4 4 3 4 4 3 2 2 5 9 13 12 9 7 6 6 5 5 5 6 7 8 8 8 8 8 8 8 8 8 7 6 6 7 6 6 5 5 6 7 9 9 10 11 12 13 14 14 14
7 4 3 2 0 3 4 5 4 11 11 10 8 8 7 6 5 5 5 6 6 7 8 8 8 8 8 8 7 7 7 5 4 6 6 7 6 6 7 7 6 8 9 10 11 11 13 12 14
2 3 2 3 1 2 4 4 4 9 9 9 7 7 6 5 5 5 5 4 5 5 5 6 7 7 7 7 7 7 7 7 6 6 6 5 6 6 8 9 9 8 8 9 10 10 12 13 14
3 3 1 3 2 3 4 4 4 11 10 9 9 7 7 6 6 5 4 3 3 3 4 5 5 6 6 7 7 6 7 7 7 7 8 8 8 8 9 8 9 9 9 9 9 9 11 13 14
3 2 3 3 2 2 3 1 4 5 8 8 7 7 7 6 5 4 2 1 1 3 4 4 5 6 6 7 8 8 8 8 9 9 10 10 9 10 10 10 9 9 9 9 9 10 11 13 13
1 3 4 2 3 3 3 4 4 7 7 6 6 6 7 7 5 4 2 1 2 3 4 5 6 6 7 7 7 7 7 7 8 8 9 10 10 11 11 11 11 11 10 9 9 11 11 12 13
Wind_Direction
301 294 287 278 249 235 252 257 260 8 8 53 34 11 16 51 32 105 138 102 122 129 134 148 153 154 150 145 143 142 150 159 145 137 126 128 113 96 80 76 73 72 71 71 71 61 76 87 90
296 300 291 242 245 244 244 248 251 146 77 78 89 324 55 83 85 114 139 152 141 140 145 150 154 155 152 150 148 149 159 162 149 156 141 139 125 100 84 77 71 75 74 71 69 51 72 83 90
275 276 277 243 237 245 263 287 169 88 90 71 130 63 37 77 107 128 135 161 149 143 158 149 154 155 155 154 155 158 166 171 166 155 133 123 120 107 85 80 78 71 64 66 68 49 59 81 76
294 278 246 254 255 248 267 312 45 98 137 186 297 120 82 48 66 107 128 167 151 149 139 143 154 155 158 159 163 167 171 176 165 131 108 116 125 114 98 90 83 87 79 68 67 64 45 75 69
259 264 245 253 257 262 253 207 99 258 199 174 213 109 101 86 90 115 145 167 153 146 124 148 152 156 162 165 169 173 180 185 172 145 121 109 109 109 110 122 139 141 133 123 127 172 213 128 129
285 266 261 254 254 255 262 242 137 259 252 117 164 186 109 125 129 138 145 175 162 136 124 134 147 156 165 171 175 182 192 188 176 168 167 154 124 118 125 154 173 170 159 166 184 200 210 209 196
279 284 270 277 279 269 257 214 233 233 255 165 170 114 122 150 143 140 151 186 151 135 133 141 151 160 170 179 179 183 196 197 178 174 186 167 142 148 141 169 164 158 162 184 204 211 206 210 208
302 291 280 267 273 283 286 102 20 320 304 63 54 339 143 151 136 148 160 173 150 152 154 158 165 171 174 179 177 178 195 195 168 174 174 151 169 181 173 167 164 167 182 199 211 214 209 207 208
284 259 273 272 270 293 26 16 280 26 310 135 106 59 99 129 141 152 164 173 167 173 177 177 169 171 173 178 177 175 185 180 170 176 168 166 193 202 199 189 170 183 195 205 211 211 208 208 220
208 259 267 282 310 344 353 343 312 240 251 214 139 108 119 140 158 168 178 183 184 188 187 189 179 165 174 178 162 178 179 175 186 190 177 194 223 217 175 156 176 189 198 207 215 215 218 224 237
231 244 271 283 322 348 327 314 292 280 267 234 191 158 155 164 177 187 192 190 192 193 193 193 189 173 173 168 163 183 186 177 195 210 185 196 218 177 143 169 179 196 205 213 217 213 218 217 225
249 269 279 283 322 324 302 305 301 259 257 358 40 150 162 177 191 198 201 201 189 193 197 201 185 179 183 169 186 186 189 177 189 204 198 191 201 196 183 188 183 188 192 210 198 206 216 212 220
243 251 269 268 261 261 281 282 272 281 280 253 104 122 173 189 199 203 206 208 198 192 194 192 190 187 187 181 184 194 198 188 195 195 199 195 183 192 211 206 200 191 194 195 200 212 230 209 206
279 270 260 266 261 246 260 283 281 271 267 276 184 181 197 197 200 202 207 213 206 195 189 185 184 194 198 191 186 194 205 196 198 191 194 202 195 193 200 205 209 199 202 205 198 209 228 226 215
272 288 281 254 243 239 272 273 250 242 259 281 263 210 208 213 206 207 209 210 209 201 194 188 186 186 200 205 193 190 200 194 200 205 199 202 201 198 196 204 208 202 204 208 208 220 226 227 222
244 258 263 245 218 187 199 268 280 180 177 261 279 265 216 210 211 211 212 207 204 205 203 196 189 185 193 202 202 192 194 196 197 202 204 207 204 199 200 204 211 204 202 209 211 213 220 226 228
223 238 243 243 197 198 213 272 290 323 232 248 257 277 294 275 242 230 222 212 203 200 201 198 189 188 190 192 198 200 199 205 200 198 206 212 210 205 200 208 210 205 207 211 216 212 210 221 226
215 222 241 226 167 201 250 261 275 339 343 307 302 337 4 12 9 10 4 350 306 226 205 198 193 191 188 183 186 198 215 216 205 205 212 212 213 211 206 212 213 205 209 216 214 214 213 218 218
303 250 242 196 113 167 258 261 322 27 7 24 47 49 41 34 27 21 14 9 3 353 333 246 205 196 185 176 181 193 215 224 225 223 221 217 217 212 209 214 212 210 217 220 215 208 214 221 213
287 288 267 179 103 146 288 287 89 84 73 63 69 65 52 46 41 35 31 22 11 0 352 344 311 233 193 188 189 193 204 218 223 226 227 224 222 220 217 215 214 214 220 223 219 213 214 218 203
254 290 320 52 130 207 263 209 123 106 96 87 85 86 68 55 47 36 33 29 20 9 357 352 347 334 298 180 174 199 226 250 248 244 245 236 231 233 233 227 219 220 222 230 226 218 216 220 215
215 80 7 353 315 230 207 199 157 136 113 107 103 83 66 56 52 44 39 32 23 8 357 357 360 359 354 350 206 212 221 239 249 249 239 228 219 221 222 223 221 223 225 230 229 224 224 220 225
69 96 286 296 294 297 224 248 176 152 142 126 124 106 83 68 57 50 45 44 31 13 6 6 15 17 6 0 348 299 257 252 258 258 253 249 235 224 220 220 224 230 232 234 234 230 226 224 226
57 239 237 246 254 265 188 232 195 181 159 141 131 116 99 82 66 54 45 51 39 25 20 23 28 24 12 7 357 344 321 306 304 297 291 288 279 254 230 222 224 231 237 241 242 242 235 232 229
241 244 223 202 213 218 119 230 259 159 146 145 140 128 108 89 78 55 37 39 37 30 25 24 28 23 15 14 10 0 350 337 323 316 308 305 299 290 266 240 228 230 235 240 242 244 244 238 234
207 251 293 305 235 127 174 221 238 137 130 126 133 128 113 90 85 75 51 47 45 36 26 22 22 19 12 11 7 359 358 352 339 334 330 324 320 316 314 303 272 247 239 240 242 245 247 244 241
204 231 343 320 323 315 244 198 141 133 132 140 153 139 122 100 88 88 74 61 61 50 33 21 16 15 9 3 0 353 353 354 344 334 331 327 327 326 327 323 315 301 277 257 246 246 247 246 245
335 347 251 233 241 245 241 229 208 164 163 169 170 148 124 101 92 91 90 80 63 53 30 19 16 11 3 359 353 346 345 345 342 342 346 345 337 334 330 326 320 314 308 300 285 270 260 255 251
184 232 265 290 314 272 273 273 33 122 166 166 138 112 109 110 117 119 118 118 67 34 24 16 11 13 6 2 355 350 347 351 353 352 348 343 337 333 329 324 318 311 306 304 301 295 289 280 274
279 232 208 227 242 237 293 289 62 84 92 102 122 138 137 136 141 149 153 94 36 19 21 25 19 16 10 2 351 345 347 352 350 344 339 336 332 328 325 322 318 310 302 293 288 288 289 287 287